Time,TemperatureF,DewpointF,PressureIn,WindDirection,WindDirectionDegrees,WindSpeedMPH,WindSpeedGustMPH,Humidity,HourlyPrecipIn,Conditions,Clouds,dailyrainin,SoftwareType,DateUTC
2013-01-16 00:15:00,35.3,34.0,30.11,North,5,6.0,11.0,96,0.01,,,0.00,weatherlink.com 1.10,2013-01-16 06:15:00,
2013-01-16 00:30:00,35.1,34.0,30.09,North,6,14.0,16.0,96,0.00,,,0.00,weatherlink.com 1.10,2013-01-16 06:30:00,
2013-01-16 00:45:00,35.1,34.0,30.11,North,360,11.0,15.0,96,0.00,,,0.00,weatherlink.com 1.10,2013-01-16 06:45:00,
2013-01-16 01:00:00,35.1,34.0,30.11,North,5,12.0,13.0,95,0.00,,,0.00,weatherlink.com 1.10,2013-01-16 07:00:00,
2013-01-16 01:15:00,35.1,34.0,30.12,NW,321,3.0,10.0,95,0.00,,,0.00,weatherlink.com 1.10,2013-01-16 07:15:00,
2013-01-16 01:30:00,35.1,34.0,30.11,North,349,7.0,10.0,96,0.00,,,0.00,weatherlink.com 1.10,2013-01-16 07:30:00,
2013-01-16 01:45:00,35.1,34.0,30.12,NW,323,3.0,10.0,96,0.00,,,0.00,weatherlink.com 1.10,2013-01-16 07:45:00,
2013-01-16 02:00:00,35.1,34.0,30.12,NNE,27,8.0,10.0,96,0.00,,,0.00,weatherlink.com 1.10,2013-01-16 08:00:00,
2013-01-16 02:15:00,35.1,34.0,30.12,NNW,335,2.0,8.0,96,0.00,,,0.00,weatherlink.com 1.10,2013-01-16 08:15:00,
2013-01-16 02:31:00,35.1,34.0,30.12,NNW,345,11.0,13.0,96,0.00,,,0.00,weatherlink.com 1.10,2013-01-16 08:31:00,
2013-01-16 02:46:00,35.0,34.0,30.12,NNE,18,8.0,14.0,96,0.00,,,0.00,weatherlink.com 1.10,2013-01-16 08:46:00,
2013-01-16 03:01:00,35.0,34.0,30.11,North,358,8.0,13.0,96,0.01,,,0.01,weatherlink.com 1.10,2013-01-16 09:01:00,
2013-01-16 03:16:00,34.8,34.0,30.12,North,3,4.0,10.0,96,0.01,,,0.01,weatherlink.com 1.10,2013-01-16 09:16:00,
2013-01-16 03:31:00,34.8,34.0,30.12,NNW,340,6.0,12.0,95,0.01,,,0.01,weatherlink.com 1.10,2013-01-16 09:31:00,
2013-01-16 03:46:00,34.7,33.0,30.12,NNW,329,10.0,17.0,95,0.01,,,0.01,weatherlink.com 1.10,2013-01-16 09:46:00,
2013-01-16 04:01:00,34.7,33.0,30.14,NNW,327,6.0,18.0,95,0.00,,,0.01,weatherlink.com 1.10,2013-01-16 10:01:00,
2013-01-16 04:17:00,34.6,33.0,30.14,NNW,333,7.0,16.0,95,0.00,,,0.01,weatherlink.com 1.10,2013-01-16 10:17:00,
2013-01-16 04:32:00,34.6,34.0,30.15,NW,319,4.0,16.0,96,0.00,,,0.01,weatherlink.com 1.10,2013-01-16 10:32:00,
2013-01-16 04:47:00,34.7,34.0,30.15,WNW,298,6.0,14.0,96,0.00,,,0.01,weatherlink.com 1.10,2013-01-16 10:47:00,
2013-01-16 05:02:00,34.7,34.0,30.14,North,349,14.0,16.0,96,0.00,,,0.01,weatherlink.com 1.10,2013-01-16 11:02:00,
2013-01-16 05:17:00,34.6,34.0,30.13,NE,41,4.0,20.0,96,0.00,,,0.01,weatherlink.com 1.10,2013-01-16 11:17:00,
2013-01-16 05:33:00,34.7,34.0,30.15,North,360,6.0,14.0,96,0.00,,,0.01,weatherlink.com 1.10,2013-01-16 11:33:00,
2013-01-16 05:47:00,34.9,34.0,30.15,NNE,22,5.0,12.0,96,0.00,,,0.01,weatherlink.com 1.10,2013-01-16 11:47:00,
2013-01-16 06:03:00,34.9,34.0,30.14,NNE,24,6.0,12.0,96,0.00,,,0.01,weatherlink.com 1.10,2013-01-16 12:03:00,
2013-01-16 06:18:00,34.9,34.0,30.15,North,351,9.0,12.0,96,0.00,,,0.01,weatherlink.com 1.10,2013-01-16 12:18:00,
2013-01-16 06:33:00,35.1,34.0,30.14,North,354,7.0,12.0,96,0.00,,,0.01,weatherlink.com 1.10,2013-01-16 12:33:00,
2013-01-16 06:48:00,35.2,34.0,30.14,North,5,10.0,10.0,96,0.00,,,0.01,weatherlink.com 1.10,2013-01-16 12:48:00,
2013-01-16 07:03:00,35.2,34.0,30.16,NNW,340,5.0,10.0,96,0.00,,,0.01,weatherlink.com 1.10,2013-01-16 13:03:00,
2013-01-16 07:18:00,35.5,34.0,30.18,NNE,13,3.0,8.0,95,0.00,,,0.01,weatherlink.com 1.10,2013-01-16 13:18:00,
2013-01-16 07:34:00,35.8,35.0,30.18,NNW,345,4.0,7.0,95,0.00,,,0.01,weatherlink.com 1.10,2013-01-16 13:34:00,
2013-01-16 07:49:00,35.9,35.0,30.19,NNW,333,4.0,9.0,95,0.00,,,0.01,weatherlink.com 1.10,2013-01-16 13:49:00,
2013-01-16 08:05:00,36.1,35.0,30.20,North,354,3.0,9.0,95,0.00,,,0.01,weatherlink.com 1.10,2013-01-16 14:05:00,
2013-01-16 08:20:00,36.2,35.0,30.19,NNE,19,5.0,10.0,95,0.00,,,0.01,weatherlink.com 1.10,2013-01-16 14:20:00,
2013-01-16 08:35:00,36.4,35.0,30.20,North,349,7.0,7.0,95,0.00,,,0.01,weatherlink.com 1.10,2013-01-16 14:35:00,
2013-01-16 08:50:00,36.5,35.0,30.22,WNW,295,4.0,15.0,95,0.00,,,0.01,weatherlink.com 1.10,2013-01-16 14:50:00,
2013-01-16 09:06:00,36.6,35.0,30.23,NW,304,4.0,12.0,95,0.00,,,0.01,weatherlink.com 1.10,2013-01-16 15:06:00,
2013-01-16 09:21:00,36.6,35.0,30.24,NW,304,5.0,14.0,95,0.00,,,0.01,weatherlink.com 1.10,2013-01-16 15:21:00,
2013-01-16 09:37:00,36.7,35.0,30.24,North,356,6.0,13.0,95,0.00,,,0.01,weatherlink.com 1.10,2013-01-16 15:37:00,
2013-01-16 09:53:00,36.8,35.0,30.24,NW,312,4.0,8.0,94,0.00,,,0.01,weatherlink.com 1.10,2013-01-16 15:53:00,
2013-01-16 10:08:00,36.9,35.0,30.24,NNW,343,6.0,12.0,94,0.00,,,0.01,weatherlink.com 1.10,2013-01-16 16:08:00,
2013-01-16 10:23:00,37.1,36.0,30.23,NNW,345,8.0,14.0,94,0.00,,,0.01,weatherlink.com 1.10,2013-01-16 16:23:00,
2013-01-16 10:38:00,37.2,36.0,30.23,WSW,248,3.0,13.0,94,0.00,,,0.01,weatherlink.com 1.10,2013-01-16 16:38:00,
2013-01-16 10:53:00,37.5,36.0,30.22,WNW,300,4.0,11.0,94,0.00,,,0.01,weatherlink.com 1.10,2013-01-16 16:53:00,
2013-01-16 11:09:00,37.9,36.0,30.22,WNW,294,5.0,11.0,93,0.00,,,0.01,weatherlink.com 1.10,2013-01-16 17:09:00,
2013-01-16 11:24:00,38.1,36.0,30.23,North,351,6.0,12.0,93,0.00,,,0.01,weatherlink.com 1.10,2013-01-16 17:24:00,
2013-01-16 11:39:00,38.4,36.0,30.21,NW,322,5.0,12.0,91,0.00,,,0.01,weatherlink.com 1.10,2013-01-16 17:39:00,
2013-01-16 11:54:00,38.9,36.0,30.20,NW,304,8.0,14.0,90,0.00,,,0.01,weatherlink.com 1.10,2013-01-16 17:54:00,
2013-01-16 12:10:00,39.6,37.0,30.20,NNE,19,6.0,14.0,90,0.00,,,0.01,weatherlink.com 1.10,2013-01-16 18:10:00,
2013-01-16 12:25:00,40.5,37.0,30.19,NNW,335,5.0,11.0,88,0.00,,,0.01,weatherlink.com 1.10,2013-01-16 18:25:00,
2013-01-16 12:41:00,40.8,38.0,30.18,NNW,343,3.0,10.0,88,0.00,,,0.01,weatherlink.com 1.10,2013-01-16 18:41:00,
2013-01-16 12:56:00,41.3,38.0,30.18,WNW,293,2.0,13.0,87,0.00,,,0.01,weatherlink.com 1.10,2013-01-16 18:56:00,
2013-01-16 13:11:00,41.4,37.0,30.18,NW,312,9.0,14.0,85,0.00,,,0.01,weatherlink.com 1.10,2013-01-16 19:11:00,
2013-01-16 13:26:00,41.9,38.0,30.17,NNW,335,8.0,11.0,85,0.00,,,0.01,weatherlink.com 1.10,2013-01-16 19:26:00,
2013-01-16 13:42:00,42.6,38.0,30.17,NW,321,8.0,11.0,84,0.00,,,0.01,weatherlink.com 1.10,2013-01-16 19:42:00,
2013-01-16 13:57:00,43.1,38.0,30.16,NNW,341,5.0,17.0,81,0.00,,,0.01,weatherlink.com 1.10,2013-01-16 19:57:00,
2013-01-16 14:12:00,43.3,38.0,30.15,WNW,294,5.0,10.0,81,0.00,,,0.01,weatherlink.com 1.10,2013-01-16 20:12:00,
2013-01-16 14:27:00,43.7,38.0,30.15,NNW,348,7.0,9.0,79,0.00,,,0.01,weatherlink.com 1.10,2013-01-16 20:27:00,
2013-01-16 14:42:00,43.6,38.0,30.15,NW,326,8.0,11.0,80,0.00,,,0.01,weatherlink.com 1.10,2013-01-16 20:42:00,
2013-01-16 14:58:00,43.8,38.0,30.15,NNW,343,5.0,11.0,79,0.00,,,0.01,weatherlink.com 1.10,2013-01-16 20:58:00,
2013-01-16 15:13:00,44.3,38.0,30.15,NNW,346,6.0,10.0,78,0.00,,,0.01,weatherlink.com 1.10,2013-01-16 21:13:00,
2013-01-16 15:28:00,44.5,38.0,30.15,North,8,3.0,10.0,78,0.00,,,0.01,weatherlink.com 1.10,2013-01-16 21:28:00,
2013-01-16 15:43:00,45.2,38.0,30.14,NNW,346,9.0,11.0,76,0.00,,,0.01,weatherlink.com 1.10,2013-01-16 21:43:00,
2013-01-16 15:58:00,45.0,38.0,30.15,NNE,20,11.0,13.0,75,0.00,,,0.01,weatherlink.com 1.10,2013-01-16 21:58:00,
2013-01-16 16:14:00,45.0,38.0,30.15,NNE,26,8.0,13.0,75,0.00,,,0.01,weatherlink.com 1.10,2013-01-16 22:14:00,
2013-01-16 16:28:00,45.3,38.0,30.15,North,6,2.0,9.0,75,0.00,,,0.01,weatherlink.com 1.10,2013-01-16 22:28:00,
2013-01-16 16:44:00,44.9,37.0,30.16,North,350,0.0,10.0,75,0.00,,,0.01,weatherlink.com 1.10,2013-01-16 22:44:00,
2013-01-16 16:58:00,44.7,38.0,30.16,NNE,31,5.0,10.0,76,0.00,,,0.01,weatherlink.com 1.10,2013-01-16 22:58:00,
2013-01-16 17:14:00,44.4,38.0,30.17,North,11,2.0,8.0,77,0.00,,,0.01,weatherlink.com 1.10,2013-01-16 23:14:00,
2013-01-16 17:29:00,43.7,37.0,30.18,NNE,19,2.0,5.0,78,0.00,,,0.01,weatherlink.com 1.10,2013-01-16 23:29:00,
2013-01-16 17:44:00,43.0,37.0,30.19,NNE,23,1.0,2.0,79,0.00,,,0.01,weatherlink.com 1.10,2013-01-16 23:44:00,
2013-01-16 17:59:00,42.2,37.0,30.20,North,1,1.0,2.0,82,0.00,,,0.01,weatherlink.com 1.10,2013-01-16 23:59:00,
2013-01-16 18:14:00,41.4,37.0,30.20,NE,34,0.0,2.0,84,0.00,,,0.01,weatherlink.com 1.10,2013-01-17 00:14:00,
2013-01-16 18:29:00,40.7,37.0,30.21,NE,34,0.0,1.0,86,0.00,,,0.01,weatherlink.com 1.10,2013-01-17 00:29:00,
2013-01-16 18:44:00,40.0,37.0,30.22,NE,34,0.0,1.0,88,0.00,,,0.01,weatherlink.com 1.10,2013-01-17 00:44:00,
2013-01-16 18:59:00,39.5,37.0,30.22,NE,34,1.0,1.0,89,0.00,,,0.01,weatherlink.com 1.10,2013-01-17 00:59:00,
2013-01-16 19:14:00,39.1,36.0,30.23,NE,34,0.0,1.0,90,0.00,,,0.01,weatherlink.com 1.10,2013-01-17 01:14:00,
2013-01-16 19:29:00,38.5,36.0,30.23,NE,34,0.0,0.0,91,0.00,,,0.01,weatherlink.com 1.10,2013-01-17 01:29:00,
2013-01-16 19:44:00,37.8,36.0,30.23,NE,34,0.0,0.0,92,0.00,,,0.01,weatherlink.com 1.10,2013-01-17 01:44:00,
2013-01-16 19:59:00,36.9,35.0,30.24,NE,34,0.0,0.0,94,0.00,,,0.01,weatherlink.com 1.10,2013-01-17 01:59:00,
2013-01-16 20:15:00,36.2,35.0,30.24,NE,34,0.0,0.0,94,0.00,,,0.01,weatherlink.com 1.10,2013-01-17 02:15:00,
2013-01-16 20:29:00,35.8,35.0,30.24,NE,34,0.0,0.0,95,0.00,,,0.01,weatherlink.com 1.10,2013-01-17 02:29:00,
2013-01-16 20:45:00,35.4,34.0,30.25,NE,34,0.0,0.0,96,0.00,,,0.01,weatherlink.com 1.10,2013-01-17 02:45:00,
2013-01-16 20:59:00,35.5,35.0,30.25,SW,236,0.0,1.0,97,0.00,,,0.01,weatherlink.com 1.10,2013-01-17 02:59:00,
2013-01-16 21:15:00,35.2,34.0,30.25,SW,221,0.0,1.0,96,0.00,,,0.01,weatherlink.com 1.10,2013-01-17 03:15:00,
2013-01-16 21:30:00,34.4,33.0,30.25,SW,221,0.0,0.0,96,0.00,,,0.01,weatherlink.com 1.10,2013-01-17 03:30:00,
2013-01-16 21:45:00,34.1,33.0,30.25,SW,221,0.0,0.0,96,0.00,,,0.01,weatherlink.com 1.10,2013-01-17 03:45:00,
2013-01-16 22:00:00,33.8,33.0,30.25,SW,221,0.0,0.0,96,0.00,,,0.01,weatherlink.com 1.10,2013-01-17 04:00:00,
2013-01-16 22:20:00,33.5,33.0,30.25,SSE,154,0.0,0.0,97,0.00,,,0.01,weatherlink.com 1.10,2013-01-17 04:20:00,
2013-01-16 22:38:00,33.1,32.0,30.25,SSE,153,0.0,0.0,97,0.00,,,0.01,weatherlink.com 1.10,2013-01-17 04:38:00,
2013-01-16 22:53:00,32.7,32.0,30.24,SSE,153,0.0,0.0,97,0.00,,,0.01,weatherlink.com 1.10,2013-01-17 04:53:00,
2013-01-16 23:08:00,32.5,32.0,30.25,SSE,154,0.0,0.0,98,0.00,,,0.01,weatherlink.com 1.10,2013-01-17 05:08:00,
2013-01-16 23:23:00,32.8,32.0,30.24,SSE,153,0.0,0.0,98,0.00,,,0.01,weatherlink.com 1.10,2013-01-17 05:23:00,
2013-01-16 23:38:00,32.8,32.0,30.24,SSE,153,0.0,0.0,98,0.00,,,0.01,weatherlink.com 1.10,2013-01-17 05:38:00,
2013-01-16 23:53:00,33.5,33.0,30.24,WNW,303,0.0,1.0,98,0.00,,,0.01,weatherlink.com 1.10,2013-01-17 05:53:00,